Probability
4 3 2 2 1 0 1 1 2 2 1 1 0 0 0 0 0 1 4 9 7 4 3 3 4 3 2 3 3 2 1 1 1 2 3 3 4 4 5 6 7 7 7
8 7 6 6 4 5 7 8 8 8 6 4 2 1 1 1 1 1 2 5 6 4 4 5 5 5 4 3 4 4 3 2 3 4 4 4 3 3 4 6 6 7 7
16 15 13 13 14 15 20 23 21 19 16 11 7 4 3 3 3 2 2 4 5 5 7 9 9 8 6 5 6 7 6 5 4 4 5 5 3 2 4 7 8 8 9
23 23 22 23 26 28 32 35 33 29 24 18 14 11 8 6 5 4 5 7 9 11 13 15 15 12 10 10 9 9 8 6 4 4 6 7 6 6 6 7 9 10 11
32 34 35 34 36 39 40 41 39 36 31 24 18 14 10 7 5 5 6 9 12 14 15 16 16 15 13 13 13 12 9 6 5 7 8 9 10 10 7 5 7 9 9
43 46 46 43 42 44 45 43 39 37 35 30 20 14 10 7 5 5 5 7 9 10 10 11 14 15 13 13 14 13 9 7 7 7 9 10 12 12 9 6 6 6 7
46 48 47 45 43 44 43 38 33 30 30 28 23 18 14 8 5 5 4 4 6 7 8 9 11 13 12 9 9 9 7 6 7 7 8 9 10 11 9 6 6 6 6
40 42 45 43 40 39 36 31 27 24 23 23 22 22 18 12 8 5 3 4 6 8 8 9 9 10 9 7 4 4 4 5 5 5 6 7 7 8 7 4 4 6 6
32 33 36 35 31 28 27 25 22 22 20 18 18 18 15 13 10 5 2 2 4 7 7 7 7 6 6 4 3 3 3 3 3 3 3 3 3 4 4 3 3 4 5
20 21 21 20 18 16 16 16 16 17 16 14 12 9 7 8 8 5 1 1 2 4 5 4 4 3 3 3 2 2 2 1 1 1 1 1 1 1 2 2 2 3 3
10 10 9 9 8 7 7 8 9 10 10 9 7 4 3 2 3 4 2 1 1 2 2 2 1 1 1 1 1 1 1 0 0 0 0 0 0 0 0 1 2 3 3
5 5 5 4 4 4 4 4 5 5 6 6 5 4 3 2 3 3 3 1 1 1 1 1 0 0 0 0 0 0 0 0 0 0 0 0 0 0 0 0 1 2 2
3 3 3 3 3 3 3 3 3 3 4 5 4 3 3 3 3 2 2 1 0 0 0 0 0 0 0 0 0 0 0 0 0 0 0 0 0 0 0 0 0 1 1
3 3 3 3 3 3 3 3 2 2 3 3 3 2 1 1 1 1 1 0 0 0 0 0 0 0 0 0 0 0 0 0 0 0 0 0 0 0 0 0 0 0 0
2 2 2 2 1 1 2 1 1 1 1 1 1 1 0 0 0 0 0 0 0 0 0 0 0 0 0 0 0 0 0 0 0 0 0 0 0 0 0 0 0 0 0
1 1 1 1 0 0 0 0 0 0 0 0 0 0 0 0 0 0 0 0 0 0 0 0 0 0 0 0 0 0 0 0 0 0 0 0 0 0 0 0 0 0 0
0 0 0 0 0 0 0 0 0 0 0 0 0 0 0 0 0 0 0 0 0 0 0 0 0 0 0 0 0 0 0 0 0 0 0 0 0 0 0 0 0 0 0
0 0 0 0 0 0 0 0 0 0 0 0 0 0 0 0 0 0 0 0 0 0 0 0 0 0 0 0 0 0 0 0 0 0 0 0 0 0 0 0 0 0 0
0 0 0 0 0 0 0 0 0 0 0 0 0 0 0 0 0 0 0 0 0 0 0 0 0 0 0 0 0 0 0 0 0 0 0 0 0 0 0 0 0 0 0
0 0 0 0 0 0 0 0 0 0 0 0 0 0 0 0 0 0 0 0 0 0 0 0 0 0 0 0 0 0 0 0 0 0 0 0 0 0 0 0 0 0 0
0 0 0 0 0 0 0 0 0 0 0 0 0 0 0 0 0 0 0 0 0 0 0 0 0 0 0 0 0 0 0 0 0 0 0 0 0 0 0 0 0 0 0
0 0 0 0 0 0 0 0 0 0 0 0 0 0 0 0 0 0 0 0 0 0 0 0 0 0 0 0 0 0 0 0 0 0 0 0 0 0 0 0 0 0 0
0 0 0 0 0 0 0 0 0 0 0 0 0 0 0 0 0 0 0 0 0 0 0 0 0 0 0 0 0 0 0 0 0 0 0 0 0 0 0 0 0 0 0
0 0 0 0 0 0 0 0 0 0 0 0 0 0 0 0 0 0 0 0 0 0 0 0 0 0 0 0 0 0 0 0 0 0 0 0 0 0 0 0 0 0 0
0 0 0 0 0 0 0 0 0 0 0 0 0 0 0 0 0 0 0 0 0 0 0 0 0 0 0 0 0 0 0 0 0 0 0 0 0 0 0 0 0 0 0
0 0 0 0 0 0 0 0 0 0 0 0 0 0 0 0 0 0 0 0 0 0 0 0 0 0 0 0 0 0 0 0 0 0 0 0 0 0 0 0 0 0 0
Wind_Speed
6 5 4 3 5 3 4 5 5 4 5 6 5 6 6 6 6 5 3 8 7 8 9 9 9 10 10 10 10 10 9 9 8 8 8 7 7 6 5 5 4 4 4
5 5 5 4 4 4 3 4 4 4 4 4 5 5 6 6 5 5 4 6 7 7 7 8 8 9 10 10 10 10 10 9 9 8 7 6 6 5 5 4 4 3 2
5 5 4 4 4 3 3 4 4 4 4 4 4 5 5 5 4 4 5 4 5 8 7 7 7 8 9 10 10 9 9 9 9 8 8 7 7 6 5 5 4 3 2
6 5 5 4 3 4 4 3 4 4 4 4 4 4 3 3 4 4 4 5 4 4 6 6 5 6 7 8 9 9 9 9 8 8 8 8 7 7 6 6 5 4 3
7 6 5 3 3 4 4 4 4 4 4 4 3 3 3 3 3 3 3 3 2 3 2 5 5 4 4 5 6 7 8 8 9 9 9 9 8 7 7 7 6 5 4
7 6 5 4 4 3 3 4 4 3 3 3 4 3 3 3 2 2 2 1 1 2 2 2 3 4 4 2 3 5 6 8 9 9 9 9 9 9 9 8 8 6 6
5 5 4 3 3 3 3 3 3 3 2 2 4 4 4 3 2 1 1 1 1 0 1 1 1 1 2 4 2 1 3 5 8 9 10 10 9 9 9 9 9 8 8
2 3 4 3 3 3 2 2 2 3 2 2 3 3 3 4 3 1 1 1 0 1 1 1 1 1 2 1 3 3 4 4 4 6 8 8 9 10 10 10 10 10 9
1 0 1 1 1 1 2 2 2 4 3 2 2 3 3 3 2 3 1 1 1 1 0 1 1 1 2 2 1 3 5 6 6 6 7 6 7 9 10 11 11 12 12
5 4 4 4 3 2 1 1 0 1 2 2 1 1 2 3 2 1 2 1 1 1 1 1 1 1 2 2 3 6 7 7 7 7 7 7 7 7 9 10 10 11 12
7 7 6 5 5 3 3 3 3 3 2 1 0 0 1 1 2 2 1 1 1 0 1 1 1 1 2 2 2 6 8 8 8 8 7 7 8 9 10 11 12 13 14
7 9 9 7 7 6 6 6 6 7 5 5 3 2 2 2 2 2 2 2 1 0 1 1 1 1 1 2 3 7 7 7 7 7 8 8 9 10 11 12 13 13 15
7 8 8 8 7 7 8 7 8 8 7 6 5 4 3 3 3 3 2 2 3 2 2 2 1 1 1 2 2 6 5 5 6 7 8 9 10 11 12 12 13 14 15
8 9 9 9 10 9 9 7 7 7 6 6 6 5 3 4 4 3 3 3 4 4 4 2 1 2 3 4 4 6 7 4 6 8 9 10 11 12 13 13 13 14 15
8 11 11 11 10 10 9 7 7 7 6 6 5 5 4 3 3 4 4 4 5 6 4 1 2 2 4 5 4 7 8 6 8 10 11 11 12 13 13 14 14 15 15
10 11 11 10 10 9 9 7 7 7 6 6 5 6 5 4 4 4 4 4 4 5 6 5 4 5 6 8 6 8 9 8 13 13 11 11 12 13 13 14 15 16 16
10 10 10 10 9 9 8 7 7 7 7 6 5 5 5 5 4 4 4 4 4 4 6 6 5 5 7 9 8 9 10 10 8 8 8 10 12 13 14 15 15 15 16
10 10 9 9 9 9 8 8 7 7 7 6 6 5 5 4 5 4 4 5 4 5 6 8 7 7 8 9 9 10 10 8 9 5 7 10 13 14 14 14 14 13 13
9 9 9 9 9 9 8 8 7 7 7 7 6 6 6 6 5 5 5 5 5 5 6 7 8 7 8 8 9 10 10 8 10 7 8 12 12 12 13 13 13 12 11
9 8 8 8 8 9 9 8 7 7 7 6 6 6 6 6 7 7 6 6 6 7 7 7 7 7 7 7 8 8 8 7 8 9 9 8 8 11 14 14 14 12 10
8 7 7 7 7 7 9 10 8 7 7 6 6 6 6 6 7 7 8 9 9 8 8 8 8 8 7 8 8 7 9 9 9 7 8 8 7 7 7 10 11 8 7
7 6 7 7 7 8 8 10 11 8 7 7 6 6 4 2 4 5 6 8 10 10 10 9 8 9 9 9 8 8 8 8 8 6 8 9 8 7 6 5 2 1 5
5 6 6 6 7 9 8 8 11 9 6 6 7 6 6 5 6 8 7 8 9 9 9 9 10 10 10 9 10 10 9 9 9 8 8 9 7 7 6 2 4 3 5
5 5 5 6 6 8 7 8 13 8 5 6 6 6 6 7 8 10 11 10 9 5 4 7 8 9 9 9 9 9 9 9 9 6 5 7 7 7 7 3 6 7 7
5 4 5 5 5 6 8 9 13 7 5 5 5 5 6 7 8 10 11 10 9 7 3 7 9 10 11 11 10 8 7 7 7 6 4 5 7 8 7 4 1 7 8
4 4 5 5 5 6 7 8 13 7 6 6 5 3 3 5 9 10 10 9 9 9 10 8 6 7 7 7 9 8 7 7 7 5 4 5 6 6 6 5 6 5 5
Wind_Direction
206 202 212 220 233 221 207 229 237 227 238 232 237 242 249 251 254 249 175 163 187 203 209 208 208 208 206 208 208 205 206 207 208 206 204 201 197 193 192 194 198 202 211
206 211 214 218 237 238 240 238 235 234 243 246 240 241 251 249 243 252 245 177 183 199 209 209 208 210 207 207 207 206 206 206 205 201 195 189 186 185 182 182 186 191 196
206 217 229 225 231 230 227 238 236 239 242 241 241 240 242 251 252 243 246 240 196 188 200 203 207 213 210 208 206 206 204 201 200 198 194 189 186 183 181 178 175 173 178
208 218 232 231 226 228 226 227 234 236 239 246 249 251 248 240 249 246 243 241 241 214 188 182 192 203 210 211 210 209 206 201 200 198 195 192 192 189 187 185 184 184 189
211 219 234 232 227 235 236 241 234 241 246 253 250 250 258 256 252 246 259 268 272 258 222 156 165 180 198 207 212 214 212 210 208 204 202 201 198 196 193 192 193 194 201
211 218 224 215 227 236 242 250 248 246 253 253 258 252 254 254 254 257 257 244 269 267 260 209 185 163 148 159 200 221 225 222 217 214 215 214 208 204 203 202 200 202 207
215 213 226 208 219 227 240 245 245 236 237 245 244 240 226 222 215 234 254 262 199 259 285 283 289 295 167 149 119 290 264 250 239 232 228 224 218 214 213 212 211 216 222
218 209 213 206 204 195 193 213 228 248 231 236 257 253 235 204 195 187 194 197 206 184 173 79 46 26 339 292 88 45 358 332 290 268 255 243 234 227 226 225 226 229 233
95 156 185 151 138 160 181 200 216 232 225 209 272 272 260 248 188 163 147 99 55 32 44 70 60 48 3 345 359 61 14 349 327 302 288 276 260 246 241 240 242 242 243
75 71 70 73 76 76 98 145 152 235 233 203 162 332 335 345 289 201 164 121 67 29 27 357 18 42 20 358 32 32 19 1 343 322 308 295 280 268 263 258 258 257 255
70 72 72 72 69 64 64 59 60 47 29 17 69 40 13 9 323 290 254 200 184 67 28 17 30 29 31 15 353 32 14 360 350 337 323 308 294 283 277 272 270 269 267
66 65 69 70 70 66 65 65 61 61 52 47 36 31 13 4 340 321 290 282 279 291 354 350 326 10 15 358 21 24 0 347 343 335 325 313 302 294 289 284 281 279 278
71 63 66 65 67 65 63 62 63 59 57 54 43 30 26 20 353 333 317 311 299 270 229 239 256 301 302 319 348 2 320 325 324 322 314 306 300 294 290 289 288 287 287
75 73 70 66 63 60 60 60 62 60 58 57 51 32 14 22 5 359 343 318 292 265 231 216 241 277 320 311 15 311 296 300 308 307 302 298 294 290 288 287 287 288 289
80 76 72 67 62 59 54 53 58 52 49 42 42 37 23 27 7 1 348 333 317 309 307 339 303 330 318 317 323 299 299 307 301 292 289 289 289 288 287 287 286 286 286
76 76 73 70 64 59 53 49 54 49 49 48 37 33 14 12 7 351 345 336 327 316 311 320 317 323 331 309 302 298 292 282 260 258 265 277 285 286 285 285 285 285 285
76 75 73 72 68 62 56 53 52 49 48 45 31 28 21 5 352 343 339 332 328 319 308 310 314 314 307 302 307 302 295 290 283 236 244 268 279 282 283 283 283 283 284
78 77 76 73 70 66 58 51 47 42 39 35 27 15 6 360 351 338 337 330 328 327 309 311 312 310 310 305 302 299 296 295 297 267 232 255 268 272 275 277 278 279 281
78 77 73 69 65 61 56 48 41 37 32 26 17 7 0 353 347 350 330 329 326 320 311 304 305 310 305 309 309 301 301 302 296 291 242 242 251 258 264 267 269 272 274
77 71 68 64 59 52 43 34 31 31 24 20 12 1 357 355 355 344 330 333 328 318 308 300 301 304 305 313 309 309 310 312 308 308 303 292 266 248 251 252 254 260 265
73 68 65 61 55 53 34 14 7 19 14 9 6 1 12 10 1 341 334 334 326 318 312 309 308 310 317 320 318 319 314 312 307 307 311 304 296 286 274 249 240 250 270
64 59 52 49 47 51 36 11 351 358 1 359 356 352 347 342 0 304 301 306 308 307 317 314 312 317 317 318 321 315 314 315 315 325 314 308 309 305 301 296 119 218 284
63 57 48 44 52 61 32 8 351 333 350 357 349 342 338 2 326 339 320 283 269 251 259 291 304 312 315 321 318 313 314 314 309 310 309 307 313 311 303 313 149 231 272
50 46 41 37 46 62 32 2 335 312 347 349 344 341 336 339 12 347 325 317 317 312 283 283 306 309 313 317 312 304 303 300 295 295 303 301 314 316 314 309 180 217 249
43 41 43 33 36 64 38 3 337 323 350 348 345 351 343 348 26 339 315 316 321 325 274 254 270 278 281 278 282 293 300 302 311 318 323 310 318 323 316 316 246 220 245
38 34 44 35 29 40 54 10 341 329 351 344 345 0 82 359 344 325 316 320 326 332 327 315 286 264 262 253 241 262 293 306 317 320 345 327 323 331 321 326 333 331 307